Farmville, Virginia, United States (23901)
Lat: 37.30N, Lon: 78.39W
Wx Zone: VAZ060
Local Info
Past Weather Observations for Today

NOTE: This archive is for the closest National Weather Service station to Farmville. Information may differ from the station used for current weather conditions.

Click here for Long-term Archive

Time Weather Temperature Dewpoint Humidity Pressure Winds Precip Visibility
16:54
Clear
79°F / 26°C 70°F / 21°C 74% 30.09 in
(1019 mb)
S 8.1 mph
(S 13 kph)
- 10SM
15:54
Partly Cloudy
79°F / 26°C 70°F / 21°C 74% 30.09 in
(1019 mb)
Calm - 10SM
14:54
Mostly Cloudy
77°F / 25°C 72°F / 22°C 83% 30.09 in
(1019 mb)
W 4.6 mph
(W 7 kph)
0.00 in
(0.00 mm)
10SM
13:54
Mostly Cloudy
73°F / 23°C 72°F / 22°C 94% 30.09 in
(1019 mb)
Variable 4.6 mph
(Variable 7 kph)
0.58 in
(14.73 mm)
10SM
13:45
Overcast
Light Rain
73°F / 23°C 72°F / 22°C 94% 30.09 in
(1019 mb)
Variable 4.6 mph
(Variable 7 kph)
0.58 in
(14.73 mm)
6SM
13:43
Overcast
Light Rain
72°F / 22°C 72°F / 22°C 100% 30.09 in
(1019 mb)
NW 3.5 mph
(NW 6 kph)
0.58 in
(14.73 mm)
2 1/2SM
13:38
Mostly Cloudy
Heavy Rain
72°F / 22°C 70°F / 21°C 94% 30.09 in
(1019 mb)
Variable 3.5 mph
(Variable 6 kph)
0.52 in
(13.21 mm)
1/2SM
13:31
Mostly Cloudy
Heavy Rain
72°F / 22°C 70°F / 21°C 94% 30.09 in
(1019 mb)
S 15 mph
(S 24 kph)
0.05 in
(1.27 mm)
1/2SM
13:29
Mostly Cloudy
Light Rain
73°F / 23°C 70°F / 21°C 89% 30.09 in
(1019 mb)
SSE 24.2 mph
(SSE 39 kph)
0.01 in
(0.25 mm)
1SM
12:54
Mostly Cloudy
75°F / 24°C 72°F / 22°C 89% 30.09 in
(1019 mb)
Calm 0.01 in
(0.25 mm)
10SM
12:30
Overcast
Light Rain
73°F / 23°C 72°F / 22°C 94% 30.12 in
(1020 mb)
SW 5.8 mph
(SW 9 kph)
0.00 in
(0.00 mm)
5SM
12:22
Overcast
Light Rain
73°F / 23°C 72°F / 22°C 94% 30.12 in
(1020 mb)
SW 5.8 mph
(SW 9 kph)
0.00 in
(0.00 mm)
7SM
12:10
Mostly Cloudy
75°F / 24°C 72°F / 22°C 89% 30.12 in
(1020 mb)
SW 5.8 mph
(SW 9 kph)
- 10SM
11:54
Overcast
73°F / 23°C 72°F / 22°C 94% 30.12 in
(1020 mb)
S 8.1 mph
(S 13 kph)
0.09 in
(2.29 mm)
10SM
11:37
Overcast
73°F / 23°C 70°F / 21°C 89% 30.12 in
(1020 mb)
Calm 0.09 in
(2.29 mm)
10SM
11:22
Overcast
Light Rain
72°F / 22°C 70°F / 21°C 94% 30.12 in
(1020 mb)
Calm 0.09 in
(2.29 mm)
5SM
11:10
Overcast
Rain
72°F / 22°C 70°F / 21°C 94% 30.12 in
(1020 mb)
Calm 0.07 in
(1.78 mm)
2SM
11:03
Overcast
Rain
72°F / 22°C 70°F / 21°C 94% 30.12 in
(1020 mb)
Calm 0.04 in
(1.02 mm)
2SM
10:54
Overcast
Rain
72°F / 22°C 70°F / 21°C 94% 30.15 in
(1021 mb)
S 3.5 mph
(S 6 kph)
0.03 in
(0.76 mm)
1 3/4SM
10:01
Overcast
72°F / 22°C 70°F / 21°C 94% 30.12 in
(1020 mb)
SSE 4.6 mph
(SSE 7 kph)
- 10SM
09:54
Overcast
72°F / 22°C 68°F / 20°C 88% 30.12 in
(1020 mb)
SE 6.9 mph
(SE 11 kph)
- 10SM
09:32
Mostly Cloudy
72°F / 22°C 70°F / 21°C 94% 30.15 in
(1021 mb)
SE 4.6 mph
(SE 7 kph)
- 10SM
09:16
Overcast
72°F / 22°C 68°F / 20°C 88% 30.15 in
(1021 mb)
S 4.6 mph
(S 7 kph)
- 10SM
08:54
Overcast
70°F / 21°C 68°F / 20°C 94% 30.15 in
(1021 mb)
SSE 5.8 mph
(SSE 9 kph)
- 10SM
08:52
Overcast
70°F / 21°C 68°F / 20°C 94% 30.15 in
(1021 mb)
SSE 5.8 mph
(SSE 9 kph)
- 10SM
07:54
Overcast
70°F / 21°C 68°F / 20°C 94% 30.15 in
(1021 mb)
SSE 5.8 mph
(SSE 9 kph)
- 10SM
06:54
Overcast
70°F / 21°C 68°F / 20°C 94% 30.12 in
(1020 mb)
S 5.8 mph
(S 9 kph)
- 10SM
05:54
Overcast
70°F / 21°C 70°F / 21°C 100% 30.12 in
(1020 mb)
SSE 4.6 mph
(SSE 7 kph)
- 10SM
05:23
Overcast
70°F / 21°C 68°F / 20°C 94% 30.12 in
(1020 mb)
SSE 4.6 mph
(SSE 7 kph)
- 10SM
05:03
Overcast
70°F / 21°C 68°F / 20°C 94% 30.12 in
(1020 mb)
SSE 5.8 mph
(SSE 9 kph)
- 10SM
04:54
Overcast
70°F / 21°C 68°F / 20°C 94% 30.12 in
(1020 mb)
S 4.6 mph
(S 7 kph)
- 10SM
04:28
Overcast
Fog And Mist
70°F / 21°C 68°F / 20°C 94% 30.09 in
(1019 mb)
SSE 5.8 mph
(SSE 9 kph)
- 6SM
04:04
Overcast
70°F / 21°C 68°F / 20°C 94% 30.12 in
(1020 mb)
S 6.9 mph
(S 11 kph)
- 9SM
03:54
Overcast
70°F / 21°C 68°F / 20°C 94% 30.09 in
(1019 mb)
S 6.9 mph
(S 11 kph)
- 10SM
02:54
Overcast
70°F / 21°C 68°F / 20°C 94% 30.12 in
(1020 mb)
SE 4.6 mph
(SE 7 kph)
- 10SM
01:54
Overcast
70°F / 21°C 68°F / 20°C 94% 30.12 in
(1020 mb)
SE 3.5 mph
(SE 6 kph)
- 10SM
01:27
Mostly Cloudy
70°F / 21°C 68°F / 20°C 94% 30.12 in
(1020 mb)
SSE 3.5 mph
(SSE 6 kph)
- 10SM
00:54
Overcast
70°F / 21°C 70°F / 21°C 100% 30.12 in
(1020 mb)
E 3.5 mph
(E 6 kph)
- 10SM
00:16
Mostly Cloudy
70°F / 21°C 70°F / 21°C 100% 30.12 in
(1020 mb)
SE 4.6 mph
(SE 7 kph)
- 10SM
Time Weather Temperature Dewpoint Humidity Pressure Winds Precip Visibility


Weather for websites

WeatherForYou.com, LLC is not responsible for any damages or problems caused by this service. Current weather conditions are obtained from the closest station including government and personal stations which may have varying degrees of accuracy. Weather forecasts are derived from the NOAA NDFD. Like all things, this site belongs to Jesus Christ... He just trusts us to maintain it. If you have any questions or comments email webmaster@weatherforyou.com

Copyright © 2015, WeatherForYou.com LLC. All rights reserved.